GFSNE_500_spd_000.txt.gz
Wind_Speed
67 58 66 67 66 64 66 69 68 69 67 76 70 74 75 78 79 76 72 79 82 86 87 87 84 85 86 86 84 84 86 85 86 86 84 81 79 76
48 49 44 41 45 40 54 56 56 60 67 73 77 71 72 72 74 76 72 70 76 78 84 87 89 89 88 88 87 86 86 87 88 88 87 84 81 81
49 55 47 49 51 51 50 52 64 66 65 64 64 68 65 67 68 71 76 77 77 73 75 82 86 91 92 92 91 88 88 87 89 89 91 90 86 84
50 50 51 53 52 51 49 49 50 56 61 62 61 67 70 67 62 63 65 64 67 71 76 80 83 87 92 93 93 93 91 90 90 93 92 91 91 89
50 48 47 47 47 49 50 48 50 51 52 54 52 53 55 55 55 57 62 66 67 70 69 69 72 76 80 85 89 92 93 93 90 92 94 94 92 91
50 49 46 44 43 41 40 40 41 45 48 51 50 50 52 54 54 54 56 60 61 63 64 66 67 68 69 70 72 77 84 91 92 92 92 95 94 92
48 46 44 42 42 42 41 40 41 41 43 47 48 48 50 53 55 55 57 60 61 64 64 65 67 69 69 68 68 69 71 76 82 85 90 93 95 96
51 50 49 45 44 43 42 42 42 43 43 45 46 44 44 48 50 51 53 55 59 64 66 66 69 70 70 69 67 67 68 69 71 75 79 86 91 94
54 52 51 49 47 45 45 44 44 43 41 41 40 41 42 44 44 43 43 44 48 54 62 66 70 71 71 71 69 66 66 68 70 71 73 75 80 83
53 54 53 50 47 44 42 40 38 36 36 38 39 33 31 34 35 35 36 36 37 37 38 39 48 64 74 74 71 68 67 67 68 69 71 71 74 77
45 46 47 45 43 40 37 33 29 29 32 29 31 34 37 40 41 43 42 44 43 42 42 41 40 37 40 58 70 70 68 67 67 69 70 69 69 73
36 37 38 37 34 31 27 24 22 23 25 27 28 28 30 33 37 39 41 42 45 47 47 47 45 44 44 36 43 58 67 68 66 67 69 69 67 69
29 29 28 24 22 21 18 17 18 17 16 18 19 19 20 19 20 20 23 25 29 32 37 46 47 46 45 44 36 39 54 62 66 67 67 67 68 68
20 16 13 13 13 13 16 16 14 13 18 21 22 22 21 20 20 21 22 25 28 29 32 35 35 36 41 44 42 33 34 54 63 67 68 65 66 68
3 3 4 6 8 10 10 8 9 12 11 9 8 11 15 18 20 22 24 22 20 21 27 31 35 37 40 41 44 43 36 31 51 64 67 67 65 67
6 3 2 4 6 9 8 6 3 1 3 7 9 8 9 11 14 19 22 24 23 23 22 25 25 27 31 35 40 41 40 33 29 43 60 66 67 66
6 6 8 10 14 12 7 5 7 8 8 12 14 15 17 16 12 12 19 25 27 26 24 22 22 22 25 29 32 37 39 40 34 30 36 53 63 67
8 9 13 14 16 12 10 10 9 9 9 11 13 15 17 18 19 18 15 13 18 22 26 23 21 17 20 22 28 32 36 39 40 39 33 34 45 60
8 12 14 15 14 11 8 6 6 7 7 7 10 13 15 18 19 21 23 20 12 10 8 16 23 21 19 19 24 26 30 34 38 42 43 41 36 39
6 8 9 9 8 6 4 3 2 3 4 4 6 9 13 15 17 19 22 25 22 11 6 6 10 17 23 21 21 22 26 28 33 36 41 42 40 38
4 4 3 3 3 4 4 2 2 1 1 2 4 8 10 12 14 16 18 21 23 23 14 4 8 10 13 19 22 23 22 23 25 30 34 40 42 40
4 3 3 2 2 2 2 1 1 1 2 2 5 7 8 9 12 13 15 17 19 21 22 18 9 5 10 12 15 19 23 27 27 27 27 33 38 43
4 3 2 1 0 1 2 3 4 5 5 5 5 6 7 8 10 11 11 12 15 18 19 19 18 12 5 6 9 12 15 18 26 29 29 29 31 37

GFSNE_500_spd_006.txt.gz
Wind_Speed
70 64 58 54 53 52 51 47 45 40 37 40 45 56 74 77 89 74 83 76 88 80 78 74 73 73 74 77 76 75 74 75 77 77 76 78 79 80
51 48 48 48 47 45 44 47 46 45 41 39 39 40 50 58 59 57 62 79 85 89 82 81 79 74 74 75 78 79 77 77 78 79 77 76 79 82
48 51 51 51 51 50 49 47 43 44 46 44 43 44 45 54 66 69 74 69 69 71 76 78 81 77 74 75 77 79 81 79 80 78 78 77 77 81
49 49 49 49 49 49 49 49 47 44 43 41 50 50 46 50 60 58 57 68 77 74 70 68 71 75 75 77 78 79 81 80 81 80 79 80 79 78
54 55 54 54 53 53 53 49 47 44 41 39 39 43 49 49 52 52 56 56 62 71 75 75 73 76 73 74 77 79 79 80 80 81 83 82 82 82
55 54 55 55 56 56 55 53 50 45 41 39 37 40 42 47 52 53 53 52 52 53 56 60 64 64 62 66 72 75 75 78 78 80 82 83 83 83
49 49 50 50 51 53 55 53 51 48 44 39 36 36 39 42 46 49 51 52 52 53 52 52 52 54 56 60 66 71 76 76 76 78 82 85 85 85
46 44 43 43 45 47 49 50 49 49 45 41 38 35 35 38 40 43 45 48 49 51 52 51 53 54 54 56 58 63 71 78 80 80 81 84 86 87
47 45 42 40 40 41 43 43 42 45 46 42 39 36 35 35 37 38 40 43 46 49 51 51 52 53 53 55 55 56 59 65 73 79 81 82 82 83
42 41 40 39 39 38 36 35 37 40 41 41 37 37 37 37 37 38 40 43 44 46 50 51 53 53 55 56 57 57 56 58 62 69 75 79 80 79
39 39 39 37 33 31 29 27 30 33 34 36 36 35 35 35 35 36 35 39 39 42 46 49 49 51 54 56 57 59 60 61 61 61 62 66 72 75
34 33 31 26 22 23 22 22 23 27 28 30 31 30 29 28 29 27 28 30 32 35 40 44 42 44 45 48 52 56 60 62 64 64 66 67 69 67
27 23 20 16 15 15 14 15 17 21 22 22 21 21 20 20 21 21 23 25 25 24 32 35 38 45 46 44 45 45 46 48 53 61 65 67 70 72
26 23 18 13 8 4 3 9 13 16 15 14 14 14 15 16 20 24 25 25 27 26 29 29 25 26 31 39 43 47 48 47 45 43 45 48 57 68
24 22 19 16 9 5 6 9 11 11 10 9 10 11 12 11 10 10 11 14 19 23 25 27 26 27 28 30 30 32 37 45 48 46 44 43 42 42
23 20 16 13 10 8 8 9 10 9 7 6 7 8 7 5 3 2 4 7 10 14 19 22 22 24 25 25 29 31 33 34 37 43 47 47 46 46
19 17 17 16 15 12 9 9 9 12 15 14 13 11 10 9 8 8 9 11 12 13 14 16 19 23 23 25 25 26 28 31 34 35 37 43 46 46
15 14 13 13 13 12 12 13 15 15 14 13 13 11 10 8 7 7 8 10 13 15 16 16 14 14 21 22 21 23 24 26 29 32 36 38 40 45
12 10 9 10 10 10 9 7 7 7 8 8 7 7 6 6 6 7 8 9 11 14 18 20 17 11 8 16 18 20 22 23 23 27 31 37 37 41
10 9 8 8 9 8 6 3 0 2 3 3 2 2 2 3 3 5 6 8 10 13 15 17 19 16 8 7 13 16 17 17 19 22 26 28 33 36
9 8 8 8 7 7 6 5 4 4 4 4 3 3 2 1 2 3 4 5 8 9 11 12 14 17 15 9 6 10 15 16 16 16 19 23 26 31
11 9 7 6 6 6 5 4 5 6 7 7 7 6 6 5 5 4 4 5 6 8 9 10 10 11 12 13 9 8 10 9 16 20 21 20 21 24
19 16 13 10 8 7 6 7 7 7 8 9 9 9 9 9 9 8 7 7 8 8 9 10 11 10 10 9 10 9 8 10 11 15 16 22 28 28

GFSNE_500_spd_012.txt.gz
Wind_Speed
75 71 69 66 61 58 55 53 53 55 53 47 48 51 53 55 57 65 76 82 89 87 82 79 77 73 72 68 69 69 74 76 81 81 82 83 83 81
61 60 55 50 48 48 49 50 51 51 54 46 43 45 47 47 45 45 49 56 63 68 70 78 79 69 64 67 74 75 73 74 80 84 85 85 86 84
45 45 46 48 50 52 53 54 55 55 57 53 48 44 44 48 48 45 43 41 39 51 67 78 76 71 75 75 68 70 76 76 82 84 85 87 87 88
45 47 49 51 53 56 58 58 58 59 60 58 57 52 48 47 49 48 44 42 41 36 50 59 82 89 72 63 72 69 64 78 84 84 84 86 88 87
50 52 55 57 57 57 55 54 54 54 57 57 57 59 56 51 46 49 47 48 43 40 50 56 61 59 78 77 72 78 72 77 83 84 84 83 86 86
56 57 56 55 54 53 52 51 49 47 48 49 48 54 57 55 49 47 49 46 51 50 49 61 62 58 56 67 72 77 80 73 74 78 85 87 84 83
54 50 50 49 48 48 49 48 47 45 44 45 42 46 52 54 53 48 45 48 51 53 53 53 64 67 60 61 63 64 71 77 76 75 77 79 79 78
47 43 39 40 41 42 42 42 40 40 42 44 43 41 44 49 52 48 46 46 49 48 58 56 58 57 56 61 50 57 66 70 74 80 83 84 81 81
40 40 41 43 42 40 40 39 37 37 37 37 39 37 39 46 47 45 46 45 44 46 46 54 59 57 62 59 61 52 52 64 68 76 79 82 84 84
39 42 43 42 40 37 38 32 30 33 35 34 33 34 36 39 42 42 44 42 40 39 41 42 54 56 54 59 59 60 57 56 67 75 76 78 83 79
39 41 41 38 35 32 32 26 22 24 27 29 30 30 31 34 37 39 41 39 35 36 37 37 40 42 48 51 54 55 57 59 61 64 71 74 80 83
36 37 37 35 30 25 25 22 17 17 16 18 22 24 26 30 33 35 37 35 33 33 35 34 37 39 40 43 46 49 51 54 56 60 63 69 74 75
31 31 31 31 29 25 22 19 12 12 11 11 13 17 21 24 26 29 31 31 32 32 36 32 35 39 41 45 48 51 52 53 54 57 61 66 68 73
27 27 28 30 31 26 23 19 12 5 1 6 10 14 15 17 19 23 26 28 29 31 33 30 31 34 35 37 40 44 47 50 53 56 58 61 63 66
24 24 26 28 29 27 22 19 14 8 7 8 10 11 13 14 16 17 20 22 24 25 27 27 30 32 34 36 39 43 43 44 48 51 54 56 58 61
21 21 22 25 25 23 20 15 12 9 8 9 10 11 12 13 14 15 17 19 19 18 15 12 12 15 21 29 36 43 44 41 39 42 50 51 51 55
18 17 19 21 22 20 18 17 15 10 8 6 7 8 9 10 11 12 12 11 10 8 5 2 1 3 4 9 24 34 37 36 36 34 30 37 45 49
16 15 16 16 18 17 15 13 13 11 10 10 10 11 12 12 11 11 10 9 8 6 4 1 3 7 10 10 6 15 23 23 25 25 27 30 32 35
16 15 14 14 14 13 12 10 9 8 7 7 7 8 7 7 8 7 7 6 5 5 3 1 2 5 9 13 10 4 13 18 18 22 21 23 27 31
16 16 14 13 13 11 9 7 6 6 4 2 2 2 3 5 6 7 7 7 5 4 3 2 2 4 7 10 10 8 2 12 16 16 19 21 23 26
19 18 18 16 14 12 9 7 5 5 5 6 6 5 5 5 7 8 9 8 7 6 5 4 4 5 6 7 9 9 8 5 5 14 18 19 20 21
21 19 20 20 19 16 13 10 8 7 7 8 9 9 10 10 10 10 10 10 10 9 8 7 7 7 7 8 8 7 7 8 8 5 6 12 19 20
23 22 20 21 23 23 21 18 15 11 9 9 9 11 11 12 14 14 14 14 13 13 12 12 12 11 10 10 10 11 10 9 8 8 7 6 9 10

GFSNE_500_spd_015.txt.gz
Wind_Speed
68 70 79 55 49 48 48 50 53 52 48 46 48 47 48 53 56 59 67 74 80 86 91 88 86 85 84 78 79 77 76 80 84 85 85 82 83 82
71 74 60 51 50 49 48 49 51 53 52 50 48 49 49 48 49 49 49 50 53 59 68 77 82 86 85 81 80 78 82 80 83 85 87 85 86 86
69 53 50 52 52 52 53 54 55 58 58 56 54 53 54 53 51 50 49 47 45 43 46 52 62 74 81 82 81 80 78 80 81 86 88 88 86 87
49 51 52 53 55 57 58 58 59 60 62 62 59 56 57 58 57 54 51 47 46 42 40 39 43 60 74 80 83 87 78 78 79 84 85 87 86 87
51 52 54 57 55 54 53 52 53 54 56 57 56 54 55 55 58 58 54 49 46 42 39 34 41 45 69 81 81 86 88 79 81 84 78 76 77 82
53 55 54 52 49 44 42 44 45 46 49 53 52 53 52 51 52 57 57 52 47 42 41 43 42 43 46 64 77 81 86 83 79 84 82 80 83 82
52 52 48 44 44 46 47 47 47 48 47 47 47 50 50 48 47 49 54 54 48 44 44 50 45 50 52 45 76 82 78 81 76 82 83 83 86 92
50 47 43 43 47 48 49 47 46 45 45 44 43 42 44 46 44 43 46 50 48 47 45 49 54 53 54 50 53 69 72 70 79 71 76 83 87 91
47 42 40 44 46 46 46 44 42 41 41 37 34 35 35 40 43 40 38 45 45 47 44 46 55 55 58 50 53 62 57 64 71 73 74 75 78 81
42 37 40 40 41 43 42 40 37 36 35 29 27 30 31 34 38 38 36 38 41 44 44 43 48 54 55 52 62 58 63 55 54 66 78 83 81 81
35 36 37 37 40 42 39 35 31 30 25 21 20 25 29 29 31 32 32 34 37 43 43 38 44 45 49 56 57 55 60 56 55 54 57 62 70 86
32 33 33 35 38 40 38 33 27 22 17 13 10 14 21 25 26 27 27 30 36 39 39 35 37 37 39 46 58 59 53 50 55 60 58 60 68 73
27 29 29 33 36 37 36 32 28 21 13 8 4 8 13 18 20 21 25 29 31 33 33 30 32 31 32 36 43 50 55 58 53 52 59 65 72 76
25 26 27 29 33 34 33 30 27 20 15 8 2 4 7 10 13 16 19 23 27 30 28 28 28 29 29 32 36 40 45 49 53 60 64 67 67 70
23 24 24 26 29 30 28 29 24 19 14 10 6 6 7 9 11 14 17 21 23 25 26 28 29 28 30 34 38 41 44 47 50 54 57 60 63 66
25 23 23 23 24 26 23 23 24 20 14 10 7 7 7 8 10 12 15 17 20 21 23 24 24 24 27 31 34 39 42 44 46 49 52 54 57 60
27 21 22 21 21 21 21 19 18 18 16 11 6 4 5 7 8 9 10 12 14 16 17 17 16 15 15 18 23 28 35 41 45 45 44 44 45 47
26 22 19 19 18 18 19 17 16 15 14 13 11 10 9 9 10 10 10 11 12 12 13 12 10 7 5 2 1 5 12 21 26 27 30 33 37 38
24 22 19 18 17 15 15 15 12 11 10 10 9 8 8 8 8 10 11 11 11 11 10 8 6 4 4 4 5 5 3 4 12 16 18 24 28 31
23 22 21 18 18 16 13 12 11 8 7 6 5 4 3 3 3 4 6 7 6 6 4 3 3 2 1 2 4 6 7 5 3 12 15 19 23 24
24 22 21 21 19 19 17 13 12 11 8 6 6 5 2 1 2 2 3 4 4 5 5 4 4 4 3 1 1 2 4 5 4 4 14 18 20 21
25 23 23 23 22 19 20 20 16 13 11 11 10 9 8 8 8 7 7 7 8 8 8 8 7 7 7 7 6 4 3 3 3 3 2 4 11 19
28 26 25 23 22 21 20 21 24 21 17 14 13 12 12 13 13 13 13 12 12 12 13 14 13 12 11 11 11 10 8 8 7 6 5 5 5 8

GFSNE_500_spd_021.txt.gz
Wind_Speed
67 56 44 36 39 44 47 48 49 44 41 41 43 46 48 50 49 45 42 42 46 53 61 72 85 95 99 97 91 89 88 86 85 85 87 87 86 83
49 39 37 39 43 46 45 48 53 51 45 45 44 46 48 50 52 52 48 44 42 43 49 54 62 72 85 93 92 88 87 86 84 84 85 88 89 88
39 38 40 44 46 47 50 53 50 52 52 41 43 42 42 44 45 49 52 52 48 44 44 44 47 56 66 76 87 89 87 84 83 82 83 85 91 94
39 41 43 47 48 49 52 49 48 44 45 43 42 44 46 46 45 44 45 50 54 51 48 46 44 45 54 65 73 80 86 86 82 81 83 85 88 94
39 42 46 48 47 51 46 46 40 43 45 45 42 46 47 46 46 47 46 43 47 54 54 50 47 45 44 52 63 73 78 83 82 82 84 84 85 89
40 43 48 49 50 47 46 38 40 41 45 49 48 48 47 44 44 45 46 45 43 45 52 54 51 48 44 43 50 59 73 80 81 82 84 85 87 88
41 45 47 48 49 46 40 38 39 43 47 49 49 46 42 40 39 40 41 43 43 41 45 51 53 50 48 44 44 47 56 73 80 81 84 88 89 86
40 43 45 47 44 42 36 37 40 45 47 49 45 42 37 35 32 33 36 39 38 41 41 46 49 50 50 47 45 44 46 54 72 81 83 85 86 88
41 41 43 46 41 36 33 36 41 45 47 46 41 36 29 29 30 32 35 38 37 39 39 42 45 46 49 50 46 44 42 43 45 64 79 84 86 87
39 41 41 42 39 32 32 34 40 42 45 41 36 30 25 24 23 23 24 25 25 29 33 36 40 42 46 50 46 42 37 38 39 41 48 72 83 88
39 40 41 38 35 28 30 33 38 40 43 37 31 26 22 19 16 13 13 14 18 23 27 30 35 37 44 51 46 47 41 41 43 48 46 47 50 81
38 39 39 33 32 27 28 30 34 37 39 34 29 23 18 14 8 8 10 11 14 20 24 28 31 35 45 51 48 50 47 42 43 45 44 53 55 56
36 36 35 30 29 24 26 29 32 34 35 32 27 22 15 10 5 6 9 10 13 19 22 22 23 32 45 48 46 49 51 45 40 41 40 42 45 59
35 34 34 28 27 22 23 26 29 31 32 31 25 21 15 8 2 2 6 9 14 17 19 21 24 34 44 45 42 45 51 51 45 43 40 43 42 43
34 33 32 27 25 23 21 24 26 27 29 28 24 19 14 10 5 2 5 8 11 15 17 20 25 33 38 39 38 35 42 48 54 48 47 46 49 51
34 33 31 26 22 22 19 20 21 23 25 25 23 18 14 10 6 3 3 6 9 11 14 18 22 27 30 31 30 29 35 35 39 47 52 50 50 52
32 32 31 27 24 23 21 18 18 20 20 21 21 18 14 9 6 4 4 6 9 12 16 19 22 24 25 25 26 27 29 31 35 40 45 48 49 54
31 31 30 26 23 21 22 19 17 17 17 17 17 16 14 10 5 2 4 6 9 11 14 16 19 20 21 22 23 24 27 29 31 35 38 40 41 41
29 30 29 26 23 22 19 19 17 16 16 15 14 13 11 9 7 3 3 6 9 11 13 15 16 18 19 22 23 25 27 30 32 34 36 39 41 42
27 28 29 28 25 22 20 18 17 15 15 15 13 11 9 6 4 5 6 7 9 10 12 12 13 13 13 12 12 11 13 15 17 21 25 28 33 36
26 26 28 28 28 25 22 20 18 17 16 16 15 12 10 8 4 2 4 6 8 11 13 13 13 13 12 11 11 10 10 10 10 10 11 12 12 14
25 25 26 27 28 29 26 22 19 18 18 17 19 18 14 11 11 9 8 9 10 11 12 13 13 13 12 11 11 10 10 9 9 9 9 8 9 11
25 25 24 25 27 29 29 27 23 20 19 19 19 20 22 18 15 15 15 14 14 15 15 15 15 15 14 14 13 13 12 12 11 10 10 9 9 9

GFSNE_500_spd_024.txt.gz
Wind_Speed
85 73 60 50 45 43 44 47 48 45 40 40 43 45 46 48 49 49 51 50 49 49 51 49 57 69 88 104 107 105 101 97 96 96 96 96 94 87
67 57 48 45 43 43 45 46 47 48 44 43 43 46 45 44 46 48 49 52 52 50 51 50 50 56 66 79 95 102 103 100 97 96 96 96 96 93
54 47 43 43 41 43 46 48 47 50 49 39 40 41 42 42 44 45 46 47 49 52 53 53 50 51 56 64 73 85 94 100 97 96 96 94 95 96
45 41 41 41 41 44 47 48 49 46 47 39 37 39 42 44 47 47 48 47 49 49 53 52 53 51 52 55 60 68 79 90 96 95 95 93 92 94
40 39 40 40 41 45 47 47 46 44 40 40 37 43 47 50 50 51 50 49 48 49 52 48 54 54 51 50 52 58 66 74 85 91 89 91 91 91
39 39 40 40 43 45 46 45 43 39 38 40 42 47 49 50 50 48 47 45 45 46 49 49 48 53 53 51 49 51 57 65 73 79 84 87 88 90
38 38 39 41 43 45 44 42 40 36 38 41 45 46 48 47 47 43 40 38 39 42 44 47 45 47 55 54 51 48 49 55 65 75 79 81 84 88
37 38 39 41 42 43 43 40 36 35 37 42 43 46 44 43 40 35 32 32 31 36 40 44 47 43 51 56 52 48 46 48 56 66 79 81 85 87
36 36 38 40 40 41 40 36 32 35 38 41 42 42 40 38 33 30 28 28 30 31 37 39 42 42 45 53 53 50 46 44 48 55 68 82 80 82
34 35 37 38 39 40 35 32 30 34 36 40 41 39 37 32 28 25 21 22 24 30 34 36 40 41 41 48 53 51 48 44 45 46 55 70 84 77
33 34 35 36 38 37 32 28 28 31 34 37 38 35 33 27 23 18 14 9 11 18 27 34 39 39 39 44 49 50 49 43 43 43 43 56 70 92
31 33 34 36 35 33 29 25 25 28 32 35 37 32 29 24 19 12 5 5 7 11 16 21 27 31 35 41 46 50 48 44 42 39 40 40 52 68
30 32 34 34 32 30 28 25 23 25 29 32 34 31 27 21 14 9 5 7 8 9 11 16 21 26 32 37 43 48 48 45 42 40 39 41 42 44
28 30 32 31 30 28 25 24 22 24 27 29 31 30 24 20 14 8 4 4 5 5 9 14 18 22 29 35 41 47 48 46 47 41 36 37 44 43
27 28 29 29 28 25 23 24 22 22 23 26 27 28 23 19 14 9 5 3 4 6 10 13 14 16 25 33 41 46 46 44 46 41 36 34 41 43
26 27 28 27 26 24 22 22 21 20 21 23 24 25 23 18 15 10 6 2 3 7 9 12 13 16 23 31 39 43 42 41 47 46 40 35 38 38
25 27 27 27 27 25 23 22 21 19 18 19 21 21 21 19 15 11 7 4 1 2 6 9 11 15 21 30 36 38 36 36 41 46 47 44 40 40
24 26 27 27 28 26 24 22 21 21 17 17 17 18 18 18 15 11 7 2 1 3 5 8 11 14 18 24 28 29 32 32 31 38 40 42 47 49
24 24 25 26 27 26 24 22 20 19 19 17 16 16 16 15 14 12 7 4 3 5 7 10 12 14 17 20 23 26 28 30 31 33 35 37 38 40
25 24 24 24 25 26 26 24 22 20 19 17 17 16 15 13 12 10 8 4 5 7 9 11 13 15 17 18 21 23 26 28 30 32 33 34 36 38
25 24 24 23 24 24 25 26 24 22 20 19 18 17 16 14 12 10 7 4 2 4 8 10 12 14 14 15 16 18 20 23 27 31 33 34 36 37
25 24 23 23 23 23 23 24 26 25 22 20 19 19 19 18 15 13 11 9 7 6 7 9 11 13 13 13 13 12 11 11 11 13 15 17 19 21
24 24 23 24 24 23 23 23 25 26 26 23 20 19 19 20 21 18 15 15 14 12 12 12 13 14 14 13 13 13 12 11 11 10 10 11 12 14

GFSNE_500_spd_027.txt.gz
Wind_Speed
106 97 85 76 68 59 53 50 51 46 41 44 46 48 50 49 48 47 48 48 49 51 51 51 53 50 54 66 81 91 106 110 107 105 102 100 96 91
97 83 74 66 57 50 48 48 48 48 48 47 46 49 47 46 46 45 44 45 47 48 52 53 53 53 52 53 59 69 81 100 105 102 102 100 100 96
79 74 65 55 48 45 45 46 46 48 51 45 46 46 45 44 44 43 43 43 45 46 48 51 53 54 54 53 52 55 65 75 92 100 98 99 100 100
71 63 53 47 44 44 44 45 46 49 49 47 43 43 41 42 42 45 47 48 48 48 50 51 51 50 52 55 53 51 53 63 73 87 96 97 98 100
61 52 46 43 41 42 44 46 48 46 46 47 40 38 38 40 44 47 49 50 49 48 48 51 52 52 50 52 54 53 50 53 61 72 84 93 97 99
52 47 44 41 41 42 45 46 46 45 45 43 38 36 39 44 47 49 48 46 46 46 45 46 49 50 47 48 51 55 52 48 51 58 72 83 91 95
47 44 42 41 41 42 44 45 45 44 41 39 36 37 41 46 47 46 45 44 41 38 38 37 41 45 45 47 47 54 52 48 47 50 58 72 82 90
43 41 41 40 40 40 41 42 43 42 38 36 36 39 42 44 45 42 41 40 36 33 31 30 35 42 43 45 47 50 53 48 45 45 49 58 74 83
40 38 37 39 39 41 41 40 42 39 36 33 36 39 40 42 41 38 37 37 35 28 28 26 33 38 40 43 43 43 51 50 45 43 44 49 61 77
36 35 36 38 39 39 40 40 40 36 33 32 35 37 40 40 37 34 32 31 25 22 24 26 29 32 35 38 40 38 49 50 45 42 41 43 51 67
36 36 35 38 38 38 38 36 35 33 30 30 33 35 37 36 33 29 28 21 14 13 15 20 28 30 30 32 37 37 46 50 46 43 41 42 49 67
36 36 33 35 36 37 35 33 30 31 27 28 30 34 35 33 28 25 21 14 12 13 14 14 17 27 28 30 35 37 43 49 46 43 41 41 46 62
34 33 34 33 34 35 33 30 28 27 24 25 28 31 33 31 26 22 17 14 13 14 12 10 12 15 24 33 35 36 42 48 46 43 40 40 41 52
30 31 30 30 32 32 30 28 27 26 24 23 26 29 30 30 25 20 16 13 11 10 8 6 6 8 15 23 28 33 40 45 46 44 40 40 40 45
29 29 28 28 30 30 28 27 26 25 25 22 23 26 27 27 24 19 15 11 9 7 6 4 2 6 12 19 25 32 37 43 45 44 40 41 39 40
27 27 27 28 28 29 28 26 24 23 22 22 21 22 25 24 24 19 15 11 8 6 6 5 5 6 11 18 24 29 35 40 44 43 39 39 37 38
27 28 27 27 28 29 29 27 25 23 22 21 20 19 22 22 22 20 16 11 7 5 4 4 5 8 11 17 21 27 32 37 40 39 36 38 37 35
29 28 28 28 27 28 28 28 27 24 22 21 20 18 18 20 20 19 17 12 8 4 2 1 4 8 12 15 19 23 28 33 35 35 35 39 37 37
29 29 30 28 27 26 27 28 28 27 24 22 20 20 18 17 18 17 16 14 9 5 2 2 5 8 12 16 19 22 25 28 31 31 33 37 40 40
29 29 29 28 26 25 25 25 26 28 28 24 22 20 19 17 16 15 14 13 10 6 5 5 6 8 11 13 17 21 23 26 29 31 30 32 37 41
27 28 27 27 26 25 24 24 25 26 29 29 25 22 20 18 16 15 13 11 10 6 5 7 9 11 12 15 17 20 23 26 29 31 33 33 34 36
27 27 27 26 26 25 24 23 23 24 26 27 28 25 22 20 18 17 15 12 10 8 5 4 8 11 13 15 17 19 22 25 27 29 31 31 33 34
28 27 27 26 26 26 25 23 22 23 24 24 26 27 25 21 19 19 18 17 13 12 11 9 8 8 10 11 12 12 13 13 14 16 19 24 28 31

GFSNE_500_spd_030.txt.gz
Wind_Speed
86 92 90 91 92 81 74 66 58 52 43 39 41 43 46 48 51 50 48 46 46 46 48 49 52 52 53 53 53 59 70 81 96 107 108 104 104 101
88 87 87 87 76 69 62 55 50 50 46 43 41 45 48 49 48 47 45 44 43 45 46 47 50 52 52 54 54 54 56 61 73 88 102 106 104 105
88 88 89 81 67 59 54 49 46 47 47 44 45 46 47 47 46 45 44 42 42 41 43 46 47 48 49 52 56 56 56 55 57 67 82 95 101 102
85 89 79 69 60 51 47 45 45 45 47 47 45 45 45 47 44 42 40 40 41 43 45 46 47 48 49 50 51 56 57 56 55 56 63 79 90 97
84 83 74 62 51 46 44 44 43 44 47 47 43 44 44 42 40 38 39 41 43 44 44 45 44 44 46 49 50 51 53 57 58 53 54 62 73 83
79 74 62 55 46 43 42 41 43 45 45 44 43 43 40 37 37 38 40 44 45 42 41 42 42 44 47 49 50 51 52 55 56 54 51 54 63 74
74 63 53 48 42 39 39 40 43 45 45 44 43 40 37 34 36 40 44 46 41 41 38 40 43 42 40 43 48 50 50 51 53 55 51 49 54 68
63 53 47 43 39 37 37 38 41 42 43 41 39 36 33 34 38 42 45 42 36 39 38 37 38 32 32 32 40 44 46 49 49 51 50 44 47 58
53 48 42 40 37 38 39 41 42 43 42 39 35 33 31 35 37 41 41 37 35 34 35 28 30 27 31 37 35 34 41 45 43 46 48 42 41 49
47 43 40 39 37 37 38 39 39 40 39 37 35 30 31 34 38 40 36 32 30 29 25 19 23 22 27 25 26 29 36 41 41 42 44 38 35 40
43 41 38 37 37 37 38 38 39 38 36 34 33 28 29 33 36 35 32 28 23 22 21 19 19 16 21 23 24 26 32 37 37 40 42 36 32 34
39 38 34 33 34 36 36 36 36 35 33 30 30 27 28 31 33 32 28 24 19 20 21 18 17 13 14 20 23 25 30 34 33 36 39 35 32 33
36 35 32 31 33 33 34 34 35 32 31 28 27 25 26 29 30 31 26 21 17 18 16 13 14 12 9 16 22 24 28 31 29 35 38 35 33 36
34 31 29 30 31 31 32 33 34 32 30 28 26 24 24 26 27 28 25 21 17 15 13 10 10 7 5 11 19 21 26 27 26 35 37 35 33 34
30 27 27 29 30 30 30 31 33 33 31 29 25 24 21 23 24 25 23 20 17 14 12 10 7 5 3 7 13 21 23 25 29 36 37 35 32 32
27 26 28 30 29 29 29 30 30 30 29 27 25 23 21 20 21 22 23 19 17 14 11 8 7 4 2 5 9 15 21 26 32 37 38 38 36 34
27 28 30 30 29 29 29 29 29 29 29 27 25 23 21 20 19 20 20 19 15 13 11 9 7 5 4 7 10 13 19 26 32 37 37 36 35 34
27 28 29 29 30 29 28 27 27 27 28 28 26 24 21 19 18 17 18 17 15 11 10 8 5 3 4 8 11 13 17 23 28 32 35 36 35 31
28 27 27 28 28 27 27 26 26 25 27 28 28 27 24 20 17 16 15 15 15 11 8 6 3 1 3 7 11 14 18 22 26 30 33 34 33 34
26 26 26 27 26 26 26 26 25 25 25 26 28 28 26 23 19 15 13 13 12 12 8 4 3 2 4 7 11 13 16 19 24 27 30 32 32 33
28 28 28 27 26 25 25 25 26 25 24 24 25 26 28 26 22 17 14 12 11 9 8 5 4 4 6 9 12 14 16 18 21 24 27 29 30 30
30 28 28 27 26 25 25 25 25 25 23 22 22 23 25 27 25 19 15 13 11 9 7 6 5 5 7 9 11 14 17 20 22 25 28 29 30 30
30 29 29 28 28 26 25 24 24 24 24 22 21 22 23 24 25 24 18 13 13 12 10 8 7 6 6 8 11 15 18 21 23 26 29 31 33 33

GFSNE_500_spd_033.txt.gz
Wind_Speed
73 79 82 85 83 80 85 86 80 73 59 48 42 41 40 40 41 43 44 45 45 46 46 47 48 49 50 52 53 54 56 61 64 69 83 101 106 108
76 81 82 82 80 81 81 76 70 64 54 43 40 40 39 41 42 44 45 44 43 44 44 43 45 46 48 50 51 53 56 59 59 59 60 75 94 105
79 75 78 78 77 78 76 69 61 55 48 42 40 40 40 42 42 43 44 44 42 42 41 41 43 45 47 49 52 53 55 59 60 60 57 58 69 89
79 73 73 75 73 69 66 59 51 48 45 40 39 41 42 42 42 42 42 40 39 38 39 41 44 47 48 48 50 52 54 56 59 61 60 56 58 69
69 75 74 67 66 63 59 52 44 43 41 41 40 41 41 43 42 41 39 36 35 37 39 42 44 46 46 45 46 48 49 51 56 60 60 58 54 57
74 75 68 66 61 56 49 44 39 39 40 41 40 41 42 42 40 37 33 33 33 37 40 43 43 41 41 42 43 45 47 49 51 54 57 59 56 53
75 67 67 61 54 50 44 38 38 38 39 39 40 41 39 37 36 32 31 31 36 40 40 39 38 40 42 43 45 47 49 50 51 52 54 55 57 53
66 63 60 55 49 43 39 37 36 36 35 36 36 37 35 35 32 29 31 34 36 41 35 34 37 39 42 45 47 49 51 52 53 53 52 52 54 53
61 59 56 49 44 39 37 35 35 36 37 37 35 35 31 32 28 28 31 34 38 35 30 30 33 31 33 32 35 38 43 43 47 50 51 51 51 51
57 55 50 42 39 35 34 32 34 35 36 36 35 34 32 32 28 28 32 35 35 32 27 21 24 26 25 23 29 31 32 28 33 41 44 46 45 48
54 50 42 37 35 31 30 31 33 34 35 35 34 32 30 29 27 27 31 34 30 29 23 19 24 22 22 19 22 28 28 28 29 34 38 40 40 43
50 43 36 33 30 28 28 30 31 32 32 32 32 31 29 28 26 27 29 31 27 25 22 18 21 16 15 18 18 20 21 24 27 29 32 34 35 38
42 37 32 29 26 26 28 30 30 30 31 30 28 27 26 26 25 26 27 29 26 23 19 18 17 15 11 14 15 19 17 17 22 26 29 31 36 35
37 33 30 25 24 25 28 29 30 30 31 31 30 27 25 25 24 24 26 27 25 21 18 16 14 14 12 11 12 13 12 15 19 23 26 32 36 34
34 29 27 25 25 27 28 28 30 30 30 30 30 28 25 23 23 22 23 25 25 21 18 16 14 11 11 8 5 12 14 16 20 21 25 34 36 34
31 28 26 25 26 28 28 29 29 28 28 28 27 28 26 23 21 20 20 21 23 22 19 17 13 10 8 6 3 12 17 19 20 21 27 32 33 33
27 28 27 27 27 29 29 29 27 27 26 27 27 27 26 24 21 19 18 19 20 20 17 14 12 9 6 5 4 9 17 21 21 24 31 32 30 30
26 26 25 25 25 26 27 27 26 25 25 25 25 26 26 25 22 19 17 16 17 17 13 11 11 7 4 4 6 10 15 22 26 29 32 35 32 29
26 25 23 24 25 27 27 25 25 24 24 24 24 24 25 25 24 20 16 14 14 14 13 10 9 7 3 2 6 11 16 19 23 27 31 35 36 34
26 24 24 25 27 27 26 24 24 23 22 22 22 22 22 23 25 23 17 14 11 11 12 10 7 5 3 2 4 10 16 20 23 26 29 32 34 33
27 25 26 26 26 26 26 25 24 23 22 21 21 21 20 21 23 24 20 14 11 9 9 8 6 4 4 3 3 6 12 18 22 25 28 31 31 31
28 26 27 27 25 25 26 26 24 23 22 22 21 20 19 19 20 21 22 17 12 10 8 8 5 4 4 4 6 7 10 15 18 21 24 27 30 32
29 28 29 27 25 24 24 24 24 23 22 21 20 19 18 18 17 18 20 20 15 11 10 9 7 5 5 7 8 10 11 14 17 20 22 25 27 30

GFSNE_500_spd_036.txt.gz
Wind_Speed
71 75 80 81 82 87 85 76 80 79 73 74 73 70 64 54 49 45 43 44 45 47 48 48 49 50 50 51 50 51 54 57 58 58 68 82 98 110
73 72 75 84 83 73 71 77 75 75 73 72 66 62 52 45 42 41 42 44 45 45 44 46 47 48 48 48 49 50 52 54 55 56 57 64 78 96
76 77 79 78 64 70 76 73 73 71 71 67 60 53 45 40 40 41 41 42 43 44 44 45 45 45 46 47 48 50 51 52 53 56 58 58 62 74
93 88 76 64 70 74 76 72 69 70 67 61 52 45 41 40 40 40 41 43 43 44 45 43 42 43 43 45 48 50 51 54 54 55 57 59 60 63
88 62 61 69 73 76 69 67 68 67 60 55 47 42 40 40 38 39 40 40 39 39 39 38 39 40 42 45 48 49 51 52 55 56 57 59 61 62
68 64 70 74 69 66 66 66 62 56 53 49 42 40 40 39 39 38 36 37 36 35 34 35 38 40 44 46 47 48 49 48 48 50 52 55 59 61
67 72 71 69 63 64 64 61 53 51 47 42 38 38 38 38 37 35 35 32 31 31 30 39 41 41 40 39 39 42 44 45 45 46 45 47 54 59
76 70 64 61 62 61 57 51 48 45 39 36 35 34 34 33 32 31 32 28 27 33 33 40 37 34 35 36 38 41 44 47 48 47 46 47 47 51
64 59 59 58 57 55 50 45 43 40 35 34 33 34 32 31 29 28 29 26 28 32 32 32 33 32 32 34 36 40 44 49 50 50 50 49 49 49
57 56 55 53 52 48 43 40 36 33 33 33 34 35 33 30 29 27 26 25 29 33 32 26 31 32 30 32 33 36 36 37 39 42 49 53 52 52
55 53 51 49 46 41 38 33 30 30 32 33 34 35 32 29 27 25 26 24 26 32 33 28 29 25 29 31 31 32 30 29 28 28 32 41 47 51
52 49 48 45 42 37 32 28 27 29 30 32 34 34 32 29 27 25 24 24 25 29 32 28 28 26 24 28 28 27 24 24 26 29 32 32 38 42
50 46 44 41 37 32 28 26 27 29 30 31 32 31 31 30 27 26 25 23 24 27 29 27 24 23 22 23 24 20 17 15 15 19 23 25 31 34
48 45 42 37 33 30 27 27 29 29 30 31 31 30 29 30 29 27 24 24 23 24 28 28 23 22 20 20 18 14 6 9 10 15 17 22 27 29
45 43 40 35 31 28 28 28 29 30 30 30 30 30 29 28 28 27 25 23 24 22 24 23 20 20 18 16 14 9 9 9 10 14 19 23 25 29
42 40 37 34 29 28 28 28 28 28 28 29 28 28 28 27 27 26 24 23 22 22 21 22 21 17 15 12 10 6 12 12 12 16 18 19 27 32
39 38 37 33 29 28 26 25 26 27 27 28 26 26 27 26 26 26 24 22 20 20 21 21 19 16 13 8 6 6 13 15 15 15 16 20 26 31
36 37 35 31 28 27 25 25 26 27 27 26 25 24 25 24 25 25 25 21 19 17 18 20 17 13 10 6 2 6 14 17 17 16 22 25 28 30
35 35 32 29 26 26 26 26 26 26 26 25 24 23 23 23 23 23 25 24 18 16 15 15 13 11 8 5 1 5 13 18 18 19 25 29 26 32
35 34 32 29 26 26 26 24 23 24 25 25 23 22 21 21 21 20 22 25 20 15 13 12 12 10 6 3 0 5 11 17 20 22 28 33 29 28
34 33 32 30 27 26 25 24 23 24 24 24 23 22 21 19 19 17 19 22 21 15 13 11 9 9 5 2 1 4 10 15 20 24 28 35 35 32
33 32 31 30 28 26 24 24 23 23 23 23 23 22 20 19 17 16 17 18 20 17 12 11 8 7 5 4 3 3 8 13 19 23 27 31 35 35
33 32 30 29 28 28 25 24 24 24 23 23 23 22 20 19 16 15 15 16 17 18 14 11 11 9 8 4 5 7 6 10 16 21 25 29 31 32

GFSNE_500_spd_039.txt.gz
Wind_Speed
72 75 77 81 85 87 88 91 96 81 68 69 71 70 72 75 77 78 75 67 60 53 49 48 46 47 47 47 46 45 44 45 49 52 57 60 72 87
76 77 78 82 87 89 88 85 72 72 72 75 71 70 72 75 74 67 63 56 50 49 48 47 45 46 47 47 47 47 47 47 47 49 54 57 59 71
81 86 88 90 86 86 75 73 74 76 75 68 68 70 70 66 61 59 55 49 47 46 44 44 45 46 48 48 49 47 47 46 46 47 50 55 56 60
88 90 87 87 81 73 72 75 79 74 69 67 68 64 59 56 55 53 48 46 44 44 44 45 44 43 43 43 44 44 45 46 47 46 47 51 56 57
90 95 89 81 77 75 78 73 68 68 69 65 58 54 51 51 50 47 44 42 42 40 40 40 40 40 39 39 40 42 43 45 46 48 50 51 54 57
93 87 79 75 77 77 67 66 66 63 61 56 50 48 47 46 45 42 39 39 39 39 40 37 36 34 35 37 40 42 44 45 45 47 50 53 56 59
82 79 78 70 64 63 64 64 61 56 53 48 45 43 41 41 40 40 40 37 36 37 35 32 33 34 37 40 40 39 40 41 43 44 45 48 51 56
79 71 66 65 63 61 59 56 53 50 46 43 39 38 38 37 36 38 37 34 32 35 32 30 32 34 37 35 34 34 34 35 37 38 41 43 44 47
68 64 63 66 62 59 55 52 49 46 42 39 34 35 34 34 34 35 35 32 32 33 28 29 32 35 36 32 31 31 32 34 36 39 41 44 46 46
61 64 65 68 60 55 52 50 45 42 38 35 33 33 34 34 35 34 31 30 31 32 27 27 30 33 32 31 31 32 31 33 36 39 42 47 50 50
63 65 67 66 57 53 49 45 41 39 34 32 32 33 34 34 34 31 29 28 28 30 28 26 30 31 30 30 31 30 29 33 37 38 35 40 48 53
65 67 68 61 53 49 45 42 38 35 33 33 33 33 34 35 33 33 30 27 27 27 28 24 29 32 27 30 34 29 28 33 33 29 28 31 36 46
64 68 66 58 50 46 43 39 35 33 33 33 33 33 34 33 32 34 33 29 26 26 27 24 28 30 30 27 28 28 27 29 21 16 18 25 32 35
66 67 63 53 47 42 40 37 33 32 32 33 33 33 32 30 31 33 33 33 30 24 26 26 26 29 28 26 25 22 23 19 11 9 12 14 17 21
67 65 56 49 44 40 38 35 33 31 31 30 30 30 30 29 29 30 32 32 31 25 23 23 25 26 25 22 19 17 18 9 7 6 6 8 11 17
68 60 49 44 42 38 35 33 32 29 29 28 29 29 29 28 28 28 28 29 30 30 21 20 23 22 20 19 15 14 11 6 6 2 2 5 12 17
64 52 43 41 40 36 34 32 30 27 28 29 29 28 27 27 27 26 26 28 28 25 25 19 19 20 17 14 12 10 4 7 6 5 4 8 13 20
54 44 39 39 38 35 33 31 29 27 28 28 27 26 25 25 26 25 24 26 25 26 22 18 19 18 14 11 8 5 4 8 7 11 13 15 21 22
47 40 37 37 36 34 32 30 28 27 27 26 25 24 25 25 24 23 23 23 25 25 20 17 16 16 12 8 5 2 4 10 10 12 18 24 24 21
43 38 35 35 35 33 31 29 28 27 27 25 24 24 23 23 23 22 21 20 21 24 22 16 13 13 10 8 5 3 3 10 13 14 23 28 26 28
40 36 34 35 34 33 31 29 28 27 25 23 23 22 22 22 21 21 19 18 18 21 22 17 12 11 11 8 5 4 6 8 15 18 25 28 26 29
36 36 35 34 33 33 30 29 28 26 24 22 22 21 20 20 20 20 18 17 16 18 20 18 13 11 9 8 7 4 7 10 13 19 24 32 26 27
34 34 33 31 31 32 29 30 28 27 25 23 22 21 19 19 18 19 18 17 15 15 16 18 15 12 10 7 7 6 4 9 13 16 22 28 31 30

GFSNE_500_spd_042.txt.gz
Wind_Speed
73 75 77 81 85 88 89 91 92 91 86 72 68 70 73 74 74 74 75 75 73 71 65 63 59 53 47 43 44 44 43 43 43 43 45 47 50 54
77 78 79 87 87 89 90 93 90 85 78 76 76 75 71 72 73 70 67 64 61 59 55 52 48 45 44 44 43 43 44 44 43 43 44 45 48 50
80 84 87 90 87 90 90 87 81 79 74 68 71 71 70 68 64 62 59 55 53 50 46 43 43 42 41 42 42 44 45 46 47 47 46 46 49 50
80 86 90 89 89 87 84 79 75 73 71 66 67 66 61 59 56 52 49 49 47 44 42 41 41 40 38 40 42 42 42 43 44 44 47 48 48 51
87 86 86 87 85 82 76 71 66 70 68 63 59 56 53 52 47 46 45 44 44 41 38 38 37 35 36 38 38 38 37 37 38 40 41 45 47 49
85 85 85 83 79 75 66 67 67 70 63 59 55 52 50 46 44 42 40 43 42 42 39 37 33 33 35 33 33 32 33 35 37 38 39 43 46 48
83 82 80 77 73 67 64 67 69 67 59 55 53 49 45 41 39 40 41 40 39 40 37 35 32 32 33 32 31 33 36 38 38 38 40 42 45 49
80 80 76 73 66 64 63 67 70 63 56 52 49 45 39 37 36 38 40 37 35 36 35 33 31 31 31 31 32 34 37 35 34 34 35 37 41 45
79 76 72 67 65 64 64 67 68 59 52 48 45 41 35 35 36 37 38 36 37 36 30 27 31 32 32 33 32 34 34 32 31 32 33 36 39 42
76 72 68 66 65 63 64 66 64 54 49 45 42 37 34 35 37 36 36 34 35 36 32 24 30 29 32 33 32 33 30 30 31 33 36 39 40 43
73 69 67 66 65 64 65 66 59 51 45 42 39 35 34 36 37 35 35 33 32 35 35 25 28 26 30 32 32 30 25 28 33 36 36 38 39 43
72 68 67 65 64 65 66 62 54 47 42 40 37 34 34 35 36 35 33 31 32 30 32 27 27 28 24 30 32 31 28 31 32 31 33 37 40 39
69 66 66 65 66 66 65 55 50 43 40 37 34 33 34 33 33 34 34 32 31 31 32 28 26 28 26 26 29 31 30 29 27 28 28 26 25 27
66 64 64 67 68 65 58 51 45 40 38 35 32 32 31 31 31 32 32 31 32 30 29 30 26 24 25 27 27 27 29 23 23 19 15 15 13 16
63 65 67 67 66 59 50 47 41 37 36 33 31 31 29 30 31 30 30 29 31 31 29 28 25 22 24 26 23 23 20 19 12 8 6 9 10 9
68 64 65 65 60 53 46 42 38 35 34 31 30 28 30 30 30 27 27 27 28 31 32 28 23 20 22 24 21 18 15 8 3 2 7 11 4 2
70 68 64 57 53 47 42 39 36 33 31 29 28 27 29 29 28 26 25 26 26 25 28 30 20 17 20 21 19 13 8 0 1 6 7 6 8 14
70 61 54 52 46 41 39 37 34 32 30 27 26 26 27 26 26 25 24 24 23 24 25 26 20 15 17 18 15 9 3 4 4 10 7 11 18 9
57 51 48 44 41 38 37 37 33 32 29 25 26 25 25 25 24 23 23 22 22 22 23 23 18 14 15 16 12 7 2 7 6 11 13 12 8 10
51 46 41 36 38 38 36 35 32 31 29 25 25 25 23 23 22 22 20 20 19 20 21 21 19 13 13 15 12 6 4 9 10 13 16 22 16 17
43 40 36 36 35 37 35 34 31 29 28 27 26 24 21 21 21 21 19 17 17 17 19 19 19 14 11 12 11 6 7 10 13 14 17 28 21 17
42 39 35 34 34 36 35 32 29 27 27 28 27 23 20 20 20 19 18 16 15 16 16 18 17 16 11 10 10 6 5 10 12 15 16 29 26 24
40 39 35 35 32 33 32 28 27 26 27 28 29 24 20 20 20 19 18 17 15 14 15 15 16 16 13 10 10 9 5 6 11 13 17 23 32 30

GFSNE_500_spd_045.txt.gz
Wind_Speed
69 69 70 73 78 82 83 84 89 90 90 91 90 86 78 73 72 70 68 67 64 62 60 60 60 60 60 60 59 57 56 56 54 51 48 50 49 52
71 72 75 79 81 82 86 90 89 89 88 88 81 75 74 73 70 65 59 55 53 52 52 51 50 50 49 49 48 47 44 43 43 43 44 45 46 48
71 76 78 78 81 84 85 86 86 87 85 77 70 71 73 72 64 58 54 52 50 47 45 43 42 41 41 40 38 38 38 38 39 40 42 43 44 45
75 79 80 82 84 84 83 84 85 84 78 70 65 69 71 66 58 54 52 49 45 42 40 37 36 36 36 36 35 34 34 35 38 40 41 43 44 46
80 80 83 82 83 84 84 84 84 76 70 65 64 67 68 60 53 51 47 44 41 41 39 40 38 36 33 33 31 32 32 32 35 37 38 39 40 42
81 87 81 82 84 84 85 82 77 70 66 64 63 67 64 54 50 46 41 40 39 42 42 41 36 35 31 29 28 28 29 30 32 33 33 34 37 40
86 85 82 84 84 85 81 77 72 66 64 63 63 65 59 50 47 42 38 37 40 42 42 41 37 32 27 26 25 27 28 31 32 33 35 37 40 41
87 82 84 85 85 82 78 75 67 65 62 63 64 62 54 48 44 39 36 37 39 41 39 38 37 33 27 25 25 25 27 30 32 34 36 37 38 38
81 84 85 84 83 79 76 70 64 62 62 63 63 58 49 45 41 36 36 37 39 40 38 34 35 33 29 27 27 27 28 30 32 35 35 35 36 36
82 84 85 85 81 77 70 64 62 61 64 64 61 53 46 43 38 34 35 36 37 39 37 35 31 30 30 29 28 28 27 30 34 35 34 33 34 36
84 85 85 83 78 72 64 60 61 64 65 61 56 47 42 40 36 33 34 34 34 35 37 35 32 25 27 30 29 29 27 29 32 33 32 33 36 39
85 85 82 76 69 64 61 62 64 66 63 58 50 43 39 37 34 32 32 32 33 32 33 30 31 25 19 28 28 30 27 28 27 29 31 33 35 37
87 82 75 68 64 63 65 64 63 64 60 52 44 40 38 35 32 31 31 32 32 32 31 29 28 28 24 18 27 28 27 27 26 28 28 29 32 35
83 75 68 67 66 65 64 65 64 62 53 46 39 37 35 33 30 29 31 32 33 30 30 28 27 28 26 21 20 25 26 25 23 23 22 17 17 19
76 70 69 68 67 68 68 62 58 52 47 40 35 35 33 30 28 28 30 31 31 29 28 26 25 28 27 19 20 22 20 21 18 12 7 10 11 14
75 74 72 70 68 65 58 53 50 45 42 35 33 33 31 28 27 26 29 29 28 29 28 25 24 26 25 17 18 19 15 13 7 1 3 9 9 6
74 72 68 63 58 56 51 49 45 42 38 32 32 30 29 26 25 26 26 27 26 25 26 26 25 25 22 17 17 14 10 6 3 3 5 7 17 14
68 66 64 60 54 51 47 44 41 37 34 32 29 28 27 24 24 25 25 25 24 23 22 21 22 26 18 15 15 11 6 5 6 5 7 7 4 6
66 58 53 47 44 43 40 38 38 34 32 30 27 27 26 22 23 24 24 23 22 21 19 18 19 22 17 12 11 9 6 9 9 9 13 8 8 7
58 52 47 42 40 37 35 33 35 34 29 27 27 26 25 22 22 23 22 21 20 20 18 16 17 19 17 11 9 7 7 11 13 13 18 13 10 10
49 49 45 40 38 35 32 33 33 32 30 27 26 25 23 22 22 21 20 19 19 19 17 15 15 17 17 11 8 6 6 10 15 15 17 22 15 12
47 41 39 38 36 33 34 33 32 32 31 26 26 24 23 23 22 20 19 18 18 18 16 15 13 15 16 12 8 6 6 8 14 18 17 22 24 18
42 36 34 35 35 34 32 32 31 32 29 25 26 26 24 23 23 20 19 17 17 17 16 14 13 13 14 14 9 7 4 6 10 16 20 20 30 25

GFSNE_500_spd_048.txt.gz
Wind_Speed
59 67 68 72 70 72 72 77 82 85 84 84 86 88 88 92 94 88 76 71 71 67 60 54 52 52 52 51 51 52 55 59 62 66 71 76 79 81
64 71 73 73 72 74 76 78 82 84 85 85 87 89 90 89 86 75 66 69 69 61 53 50 48 47 47 47 48 48 49 50 51 55 58 60 64 68
75 77 71 74 72 77 82 82 86 85 84 86 89 90 90 81 74 67 65 67 65 55 49 46 43 42 41 41 41 42 42 43 44 46 48 50 51 52
74 72 75 80 79 79 85 90 89 88 88 88 89 87 81 73 65 63 65 66 60 52 47 42 39 38 37 36 36 36 38 38 37 37 39 39 40 43
68 74 79 76 80 87 91 94 87 89 89 89 87 80 73 66 61 62 64 63 55 49 44 40 37 37 36 35 34 34 33 33 32 32 32 33 35 38
67 72 77 84 87 92 91 85 88 88 88 86 81 73 66 61 60 63 62 58 50 47 43 40 38 37 34 32 33 30 29 29 29 29 31 32 33 36
72 79 83 86 87 86 83 86 89 88 84 78 72 65 60 60 63 63 60 52 47 43 40 40 39 39 36 31 29 28 27 27 28 29 29 31 32 35
75 81 83 84 82 82 83 86 85 81 77 69 63 60 60 63 62 61 56 47 43 41 39 38 39 37 35 35 30 27 27 27 28 28 30 31 33 35
78 80 80 80 80 83 85 86 82 76 69 63 60 60 63 63 61 58 50 44 40 38 38 36 38 36 35 36 32 28 25 25 26 28 30 32 33 34
76 77 78 80 82 84 86 84 77 69 62 61 62 61 62 61 59 53 45 41 38 36 36 35 37 36 34 34 33 27 25 25 26 28 30 31 31 32
77 79 80 83 85 86 84 77 69 64 64 62 62 62 63 60 55 47 41 38 35 34 34 34 35 34 33 33 32 27 25 24 24 26 30 32 32 33
79 80 83 84 84 83 77 72 66 66 67 65 62 64 61 55 47 41 38 36 34 31 33 33 33 34 30 30 32 26 23 23 22 25 29 29 31 32
82 84 86 86 81 77 73 70 69 69 68 66 63 59 53 47 40 35 35 34 32 30 32 32 31 32 33 26 28 27 24 22 22 25 25 26 29 32
86 87 87 83 78 73 72 69 66 65 61 59 54 51 47 41 35 32 32 31 29 29 30 30 29 31 30 25 26 23 21 21 21 21 22 24 25 23
87 86 84 79 75 71 66 64 62 63 57 52 49 45 40 36 32 31 30 29 27 29 27 28 29 29 29 24 21 18 19 20 16 17 15 10 11 15
87 85 81 76 72 70 66 62 59 57 52 48 46 42 35 32 30 30 28 27 26 27 27 27 27 26 26 23 17 16 16 14 12 9 4 5 2 7
89 81 75 72 67 62 55 51 50 47 45 43 41 36 31 29 29 28 26 25 24 26 26 27 26 24 22 21 15 14 13 9 8 4 3 3 4 8
81 75 69 65 60 50 46 44 42 41 39 39 37 32 27 27 28 27 25 23 24 24 24 25 24 23 20 20 15 13 10 8 8 8 11 4 3 0
76 70 66 60 49 43 42 41 38 36 35 35 35 28 24 26 26 25 23 23 23 23 23 22 22 20 18 18 13 12 9 9 12 12 16 10 6 7
73 66 61 53 45 42 40 37 34 32 32 32 32 26 24 25 26 24 23 22 22 22 21 20 20 18 17 16 12 12 10 11 15 16 18 15 10 7
65 61 56 49 44 40 36 34 33 30 30 30 30 26 24 25 25 24 23 22 21 21 20 19 18 17 15 14 13 11 11 10 15 19 18 23 15 13
61 56 52 46 42 37 35 33 33 32 31 31 29 29 24 25 25 24 23 22 20 20 18 18 17 16 14 12 13 10 11 10 14 19 21 25 25 19
58 53 46 41 38 36 35 34 33 32 32 31 29 26 24 25 26 25 24 22 19 19 18 17 17 15 14 11 11 11 11 11 10 15 21 23 29 27

GFSNE_500_spd_051.txt.gz
Wind_Speed
61 66 66 68 66 67 77 81 78 77 80 78 79 89 93 94 91 90 91 92 91 88 77 66 65 62 60 55 53 51 51 51 51 51 52 52 59 63
67 67 62 68 72 80 83 79 76 79 78 83 93 94 91 88 88 89 90 89 84 72 63 63 60 61 54 52 48 48 49 49 50 49 48 49 50 55
71 66 68 70 72 72 73 76 78 76 87 90 92 89 88 88 89 90 86 83 74 63 61 60 58 55 50 48 46 46 47 47 47 46 44 43 44 47
63 73 71 75 73 73 76 77 84 89 91 90 86 85 86 87 88 87 80 67 60 60 61 59 58 49 48 46 45 43 43 42 40 39 39 38 38 40
65 73 74 74 73 74 78 81 85 87 86 85 84 86 87 87 85 79 70 60 58 60 58 58 53 44 45 44 42 41 39 39 37 34 34 34 34 35
67 72 73 73 74 77 80 83 82 83 84 85 86 87 87 81 75 68 61 59 59 58 59 57 48 43 43 42 40 39 38 37 35 32 31 31 31 31
69 70 70 72 76 78 78 78 81 84 86 87 87 84 80 70 65 63 63 60 58 59 59 51 45 42 41 40 40 36 33 33 33 31 29 29 28 29
66 68 70 70 72 75 77 80 83 85 85 83 80 75 68 65 62 64 63 61 60 58 56 45 43 40 39 38 39 37 34 31 29 30 29 28 28 29
63 65 68 72 75 78 80 82 84 85 85 79 74 67 67 64 66 65 64 63 60 53 50 41 40 38 38 37 38 36 33 30 29 28 28 29 29 30
67 69 74 77 80 82 84 87 87 86 81 77 71 67 67 67 66 66 64 60 53 46 45 39 37 36 37 37 38 34 34 29 29 27 28 29 29 29
70 74 80 83 85 86 87 87 85 82 75 75 73 68 64 61 60 61 57 54 45 40 38 37 35 35 36 36 36 35 32 28 27 26 27 28 30 30
75 79 85 87 86 86 87 86 84 78 74 72 70 64 60 57 55 54 51 46 41 35 35 34 33 34 34 35 32 33 31 30 25 24 25 28 29 28
80 85 89 90 90 90 88 84 79 74 72 71 66 64 61 56 50 46 45 40 37 33 33 31 31 32 34 31 30 31 29 27 24 21 22 23 25 26
86 90 93 93 92 88 84 77 73 71 69 63 60 56 56 50 47 45 41 34 31 30 30 30 29 31 30 30 29 29 29 25 19 20 19 19 20 21
90 93 93 92 89 85 77 72 69 65 60 54 49 46 45 44 41 39 36 32 29 27 28 27 27 28 29 28 26 27 25 22 17 18 15 13 8 2
93 94 92 90 87 81 74 69 63 59 52 46 41 40 39 36 37 33 32 29 26 27 26 25 26 26 26 26 25 25 22 17 17 13 9 6 7 2
97 94 93 90 84 76 70 64 58 53 44 37 37 36 33 33 33 28 29 27 25 25 24 24 24 24 24 24 23 22 19 16 15 10 8 8 9 6
92 91 87 82 76 71 66 58 52 46 39 36 35 32 30 33 30 27 29 25 23 23 22 23 23 23 23 21 21 21 16 15 14 10 11 12 10 9
89 85 80 75 70 68 61 54 47 42 38 33 31 28 30 32 28 27 27 24 22 23 21 21 22 22 21 20 18 20 15 14 14 14 15 17 13 11
83 78 73 69 68 65 57 51 42 38 34 28 27 28 28 28 27 25 24 22 22 22 20 21 21 21 20 19 17 18 15 14 14 16 17 19 17 15
77 72 67 67 68 63 54 44 37 32 26 30 28 26 27 28 25 24 22 22 22 21 20 20 20 20 18 17 16 16 15 14 14 17 19 21 23 19
72 66 66 68 68 58 48 39 33 33 33 31 29 29 30 29 26 23 22 23 23 21 19 20 19 19 17 16 15 15 15 14 14 15 19 22 25 25
65 64 67 69 62 52 43 36 32 33 36 34 31 30 30 29 25 22 23 24 24 22 19 19 19 18 17 15 14 14 14 13 14 13 16 20 24 28